[[{"header":{"parameterUnit":"m.s-1","parameterCategory":1,"la1":30.2991,"la2":30.254,"lo1":-89.0895,"lo2":-89.0444,"dy":0.0017,"dx":0.0017,"nx":28,"ny":28,"refTime":"2024-04-20T09:00:00:Z","depth":0,"parameterNumber":2,"parameterNumberName":"U-component_of_WINDS"},"data":[0,0,0,0,0,0,0,0,0,0,0,0,0,0,0,0,0,0,0,0,0,0,0,0,0,0,0,0,0,0,0,0,0,0,0,0,0,0,0,0,0,0,0,0,0,0,0,0,0,0,0,0,0,0,0,0,0,0,-0.3024,-0.3024,0,-0.2967,-0.2967,-0.2966,-0.2931,-0.2931,-0.2931,-0.2931,-0.2874,-0.2873,-0.2872,0,0,0,0,0,0,0,0,0,0,0,0,0,-0.3106,-0.3104,-0.3024,-0.3023,-0.3023,-0.2967,-0.2967,-0.2966,-0.2931,-0.2931,-0.2931,-0.293,-0.2875,-0.2873,-0.2872,0,0,0,0,0,0,0,0,0,0,0,0,0,-0.3062,-0.3104,-0.3024,-0.2999,-0.2996,-0.2968,-0.2967,-0.2966,-0.2931,-0.2931,-0.2931,-0.293,-0.2875,-0.2873,-0.2871,-0.2865,0,0,-0.2865,-0.2864,0,0,0,0,0,0,0,0,-0.3064,-0.3059,-0.3003,-0.3,-0.2997,-0.2956,-0.2975,-0.2932,-0.2931,-0.2956,-0.293,-0.293,-0.2902,-0.2898,-0.2888,-0.2862,-0.286,-0.2865,-0.2864,-0.2863,-0.2863,0,0,0,0,0,0,0,-0.3067,-0.3061,-0.3002,-0.3002,-0.2999,-0.2991,-0.2985,-0.2967,-0.2931,-0.2954,-0.2951,-0.2945,-0.29,-0.289,-0.2886,-0.2859,-0.2865,-0.2863,-0.2862,-0.2861,-0.2827,-0.2827,0,0,0,0,0,0,-0.3074,-0.3064,-0.3004,-0.3,-0.3031,-0.299,-0.2983,-0.297,-0.2931,-0.2925,-0.2945,-0.2943,-0.2893,-0.2888,-0.2884,-0.2875,-0.2863,-0.2861,-0.286,-0.2827,-0.2827,-0.2828,0,0,0,0,0,0,-0.3076,-0.3069,-0.3006,-0.3031,-0.3023,-0.2989,-0.2974,-0.2969,-0.2958,-0.2925,-0.2918,-0.294,-0.2893,-0.2887,-0.287,-0.2872,-0.286,-0.2859,-0.2827,-0.2827,-0.2827,-0.2856,0,0,0,0,0,0,-0.3079,-0.307,-0.3066,-0.3031,-0.3021,-0.2992,-0.2975,-0.2968,-0.2954,-0.2952,-0.2919,-0.2913,-0.2892,-0.2873,-0.2868,-0.2869,-0.2857,-0.2826,-0.2827,-0.2827,-0.2855,-0.2857,-0.286,0,0,0,0,0,-0.3082,-0.3077,-0.3066,-0.3059,-0.3016,-0.2992,-0.2987,-0.2962,-0.2955,-0.2951,-0.293,-0.2914,-0.2873,-0.2872,-0.2866,-0.2867,-0.2826,-0.2827,-0.2827,-0.2854,-0.2857,-0.286,0,0,0,0,0,0,-0.3113,-0.3072,-0.306,-0.3043,-0.3021,-0.2986,-0.2981,-0.2966,-0.2946,-0.2945,-0.2915,-0.2908,-0.2895,-0.2879,-0.2879,-0.2859,-0.2848,-0.2847,-0.287,-0.2873,-0.2875,-0.288,-0.2855,0,0,0,0,0,-0.3118,-0.3102,-0.3066,-0.3055,-0.3045,-0.3015,-0.3004,-0.2987,-0.2964,-0.2954,-0.2932,-0.2911,-0.2893,-0.2882,-0.2864,-0.2852,-0.2846,-0.285,-0.2853,-0.2855,-0.2855,-0.2849,-0.2851,-0.283,-0.283,-0.283,0,0,-0.3129,-0.3104,-0.3095,-0.3061,-0.3042,-0.3027,-0.3008,-0.2992,-0.2981,-0.2952,-0.2935,-0.2918,-0.2893,-0.2879,-0.2872,-0.2865,-0.2859,-0.2856,-0.2858,-0.2856,-0.285,-0.2852,-0.2854,-0.283,-0.283,-0.283,0,0,-0.3139,-0.3119,-0.3107,-0.3089,-0.3061,-0.3041,-0.3039,-0.3006,-0.2994,-0.2976,-0.2955,-0.2942,-0.2912,-0.2895,-0.2882,-0.2888,-0.2873,-0.2883,-0.2896,-0.2891,-0.2893,-0.2894,-0.2898,-0.2899,-0.2883,-0.2884,-0.2884,0,-0.3156,-0.3131,-0.3104,-0.309,-0.3076,-0.305,-0.3039,-0.3023,-0.2991,-0.2982,-0.2975,-0.2938,-0.2919,-0.2902,-0.2903,-0.2894,-0.2891,-0.2887,-0.2895,-0.2896,-0.2897,-0.29,-0.2901,-0.2885,-0.2885,-0.2885,-0.2885,0,-0.3153,-0.3136,-0.3131,-0.31,-0.3086,-0.3074,-0.3046,-0.3036,-0.302,-0.3002,-0.2985,-0.2962,-0.2939,-0.2933,-0.2918,-0.2914,-0.2911,-0.29,-0.2888,-0.2901,-0.2903,-0.2904,-0.2887,-0.2887,-0.2886,-0.2886,0,0,-0.3182,-0.3137,-0.3135,-0.3122,-0.3089,-0.3076,-0.3064,-0.3041,-0.3033,-0.3012,-0.3002,-0.2977,-0.2967,-0.2953,-0.2936,-0.2931,-0.2939,-0.292,-0.2919,-0.2926,-0.2936,-0.2945,-0.2947,-0.2929,-0.2929,-0.2929,-0.2938,0,-0.3188,-0.3163,-0.3139,-0.3123,-0.3108,-0.3084,-0.3073,-0.3053,-0.3036,-0.3021,-0.3003,-0.2986,-0.2973,-0.2965,-0.2959,-0.294,-0.2941,-0.2939,-0.292,-0.292,-0.2928,-0.2947,-0.2957,-0.2966,-0.2939,-0.2939,-0.2939,0,-0.3192,-0.3172,-0.3155,-0.3125,-0.3118,-0.3108,-0.3087,-0.3073,-0.305,-0.3038,-0.3023,-0.3005,-0.2992,-0.2982,-0.2964,-0.2963,-0.2955,-0.2944,-0.2944,-0.2942,-0.2931,-0.2947,-0.2968,-0.297,-0.294,-0.294,-0.294,0,-0.3216,-0.3185,-0.317,-0.3159,-0.3124,-0.3119,-0.3104,-0.3081,-0.3069,-0.3051,-0.3043,-0.3023,-0.3013,-0.2999,-0.2976,-0.2971,-0.2962,-0.2949,-0.2953,-0.2953,-0.2952,-0.2952,-0.2973,-0.2945,-0.2945,-0.2945,-0.2945,0,-0.3226,-0.3217,-0.3181,-0.3172,-0.3161,-0.3135,-0.3125,-0.3109,-0.3089,-0.3077,-0.3055,-0.3045,-0.3016,-0.3003,-0.2986,-0.2975,-0.297,-0.2961,-0.2957,-0.2963,-0.2965,-0.2958,-0.2957,-0.2946,-0.2946,-0.2946,-0.2945,0,-0.3251,-0.3226,-0.3209,-0.3178,-0.317,-0.3163,-0.3137,-0.3128,-0.311,-0.3096,-0.3092,-0.3064,-0.3048,-0.3024,-0.3001,-0.2989,-0.2981,-0.2974,-0.2989,-0.2986,-0.2992,-0.2992,-0.3009,-0.3011,-0.2981,-0.2982,-0.2982,0,-0.3259,-0.3251,-0.3219,-0.3209,-0.3195,-0.318,-0.3169,-0.3143,-0.3132,-0.3106,-0.3101,-0.3083,-0.3068,-0.3043,-0.3022,-0.3004,-0.2997,-0.3004,-0.2994,-0.3001,-0.2998,-0.2999,-0.2999,-0.3007,-0.3007,-0.3007,-0.3008,0,-0.3277,-0.3265,-0.3249,-0.3228,-0.3215,-0.3198,-0.318,-0.3174,-0.3145,-0.3134,-0.3117,-0.3104,-0.3081,-0.3064,-0.3044,-0.303,-0.3015,-0.3011,-0.3011,-0.3018,-0.3028,-0.3024,-0.2996,-0.3011,-0.301,-0.301,-0.301,-0.301,-0.3294,-0.3286,-0.3263,-0.3246,-0.3229,-0.3213,-0.3204,-0.3185,-0.3171,-0.3149,-0.3135,-0.312,-0.3099,-0.307,-0.3057,-0.3045,-0.3039,-0.3039,-0.3039,-0.3039,-0.3042,-0.3029,-0.3041,-0.3041,-0.3041,-0.3041,-0.3041,0,-0.3311,-0.3295,-0.328,-0.3255,-0.3242,-0.3228,-0.3208,-0.3199,-0.3185,-0.3166,-0.3151,-0.3133,-0.3117,-0.3094,-0.3077,-0.3072,-0.3065,-0.3068,-0.3069,-0.3066,-0.3048,-0.3051,-0.3075,-0.3075,-0.3075,-0.3075,-0.3075,-0.3075,-0.3319,-0.3306,-0.3292,-0.3271,-0.3255,-0.3239,-0.3229,-0.3215,-0.32,-0.3181,-0.3167,-0.3152,-0.3133,-0.3114,-0.3099,-0.3093,-0.3088,-0.3095,-0.3087,-0.307,-0.3067,-0.3064,-0.3066,-0.3093,-0.3093,-0.3105,-0.3106,-0.3106]},{"header":{"parameterUnit":"m.s-1","parameterCategory":1,"la1":30.2991,"la2":30.254,"lo1":-89.0895,"lo2":-89.0444,"dy":0.0017,"dx":0.0017,"nx":28,"ny":28,"refTime":"2024-04-20T09:00:00:Z","depth":0,"parameterNumber":3,"parameterNumberName":"V-component_of_WINDS"},"data":[0,0,0,0,0,0,0,0,0,0,0,0,0,0,0,0,0,0,0,0,0,0,0,0,0,0,0,0,0,0,0,0,0,0,0,0,0,0,0,0,0,0,0,0,0,0,0,0,0,0,0,0,0,0,0,0,0,0,3.7738,3.7738,0,3.7739,3.7739,3.7739,3.7682,3.7681,3.7679,3.7678,3.7677,3.7679,3.768,0,0,0,0,0,0,0,0,0,0,0,0,0,3.7688,3.7689,3.7738,3.7738,3.7738,3.7739,3.7739,3.7739,3.7683,3.7681,3.7679,3.7677,3.7677,3.7678,3.768,0,0,0,0,0,0,0,0,0,0,0,0,0,3.7701,3.769,3.7738,3.771,3.7708,3.7739,3.7739,3.7739,3.7683,3.7681,3.7679,3.7676,3.7676,3.7678,3.768,3.7737,0,0,3.7687,3.7687,0,0,0,0,0,0,0,0,3.7701,3.7703,3.7715,3.7712,3.771,3.7708,3.7721,3.7738,3.7684,3.7692,3.7678,3.7675,3.7689,3.769,3.7695,3.7737,3.7737,3.7687,3.7688,3.7689,3.7689,0,0,0,0,0,0,0,3.77,3.7703,3.7738,3.7715,3.7712,3.7698,3.7697,3.7724,3.7703,3.7691,3.7687,3.7688,3.7688,3.7693,3.7695,3.7737,3.7687,3.7688,3.769,3.7691,3.7827,3.783,0,0,0,0,0,0,3.7703,3.7703,3.7738,3.7738,3.77,3.77,3.77,3.7711,3.7703,3.77,3.769,3.7686,3.7691,3.7692,3.7694,3.7761,3.7689,3.7691,3.7692,3.7825,3.7828,3.7831,0,0,0,0,0,0,3.7702,3.7707,3.7738,3.7719,3.7722,3.7704,3.7717,3.7712,3.7718,3.7702,3.7698,3.77,3.7689,3.7691,3.7727,3.776,3.7692,3.7693,3.7822,3.7826,3.7829,3.7895,0,0,0,0,0,0,3.7701,3.7707,3.7728,3.772,3.7724,3.7772,3.7719,3.7714,3.7722,3.7716,3.771,3.7707,3.7688,3.7725,3.7729,3.7762,3.7695,3.7819,3.7824,3.7828,3.789,3.7901,3.791,0,0,0,0,0,3.7699,3.7746,3.773,3.7734,3.775,3.7774,3.7776,3.7753,3.7724,3.7746,3.7736,3.7707,3.7756,3.7729,3.7734,3.7767,3.7817,3.7823,3.7828,3.7886,3.7899,3.791,0,0,0,0,0,0,3.7758,3.7745,3.7726,3.7772,3.7775,3.7764,3.779,3.7767,3.7777,3.7771,3.7742,3.7742,3.7782,3.7778,3.7748,3.7823,3.7781,3.7788,3.7824,3.7836,3.7846,3.7846,3.7697,0,0,0,0,0,3.7776,3.7797,3.7784,3.7826,3.7828,3.781,3.7819,3.7801,3.7802,3.7803,3.7795,3.7798,3.7813,3.7824,3.7838,3.7889,3.7888,3.7915,3.7925,3.7933,3.7939,3.7967,3.7979,3.7848,3.7848,3.7848,0,0,3.7814,3.7809,3.7824,3.7837,3.7837,3.7859,3.7811,3.7835,3.7851,3.7806,3.784,3.7835,3.7835,3.788,3.7899,3.7878,3.7975,3.794,3.7947,3.7948,3.7974,3.7986,3.7997,3.7852,3.7851,3.7851,0,0,3.7894,3.7893,3.7928,3.7929,3.793,3.7917,3.7926,3.792,3.7915,3.7948,3.7915,3.7934,3.7962,3.7964,3.7968,3.8051,3.8025,3.8056,3.8108,3.8135,3.8145,3.8154,3.8184,3.8195,3.8062,3.8062,3.8063,0,3.7941,3.7973,3.7949,3.7976,3.7983,3.7945,3.798,3.7982,3.7988,3.7993,3.797,3.8005,3.8002,3.8047,3.8067,3.8072,3.8081,3.8057,3.8146,3.8155,3.8163,3.8191,3.8202,3.8066,3.8066,3.8065,3.8065,0,3.8031,3.8054,3.8082,3.8089,3.8099,3.813,3.8111,3.8124,3.8106,3.8096,3.8131,3.8127,3.814,3.8149,3.8131,3.8191,3.8178,3.8151,3.8109,3.8179,3.8205,3.8216,3.8072,3.807,3.8069,3.8068,0,0,3.8147,3.8141,3.8152,3.8155,3.8154,3.8171,3.8201,3.8214,3.8226,3.8231,3.8256,3.8281,3.8256,3.8261,3.8243,3.8267,3.8334,3.8237,3.8236,3.8255,3.8401,3.8422,3.8435,3.8317,3.8319,3.832,3.8401,0,3.8225,3.8277,3.8256,3.8309,3.833,3.8294,3.832,3.8323,3.8314,3.8331,3.8321,3.834,3.8305,3.8308,3.833,3.8321,3.8363,3.8315,3.8339,3.834,3.8341,3.8448,3.847,3.8546,3.8411,3.8412,3.8414,0,3.8323,3.8334,3.8389,3.8385,3.8393,3.8417,3.8428,3.8444,3.8446,3.8438,3.8445,3.8422,3.8451,3.841,3.845,3.8418,3.8427,3.8424,3.8426,3.8427,3.8381,3.8453,3.857,3.8582,3.8429,3.8428,3.8427,0,3.8403,3.8431,3.8468,3.8472,3.8468,3.8486,3.8485,3.8484,3.8494,3.8503,3.8509,3.8522,3.8529,3.8539,3.852,3.8492,3.8563,3.852,3.8558,3.8558,3.8574,3.8573,3.8695,3.858,3.858,3.8579,3.8579,0,3.8493,3.8528,3.8504,3.8527,3.8565,3.8542,3.8581,3.8576,3.8576,3.8597,3.8567,3.8587,3.8561,3.8579,3.8565,3.86,3.8603,3.8598,3.8594,3.8601,3.8602,3.8606,3.8601,3.8582,3.8582,3.8581,3.8581,0,3.8589,3.8574,3.8612,3.8606,3.8605,3.8634,3.8628,3.8649,3.8639,3.8666,3.8671,3.8656,3.8675,3.8658,3.8676,3.8667,3.8714,3.8702,3.8714,3.8711,3.875,3.8747,3.8879,3.8895,3.8769,3.877,3.8771,0,3.8647,3.8673,3.8671,3.8683,3.8685,3.8705,3.8715,3.8693,3.8704,3.8709,3.8729,3.8747,3.8759,3.8793,3.8783,3.8797,3.8785,3.883,3.8787,3.8794,3.8786,3.8785,3.8788,3.8839,3.8841,3.8842,3.8843,0,3.8752,3.8744,3.876,3.8774,3.8787,3.8796,3.8803,3.8815,3.8793,3.8807,3.8828,3.8838,3.8857,3.8875,3.8886,3.8885,3.8861,3.8857,3.8866,3.8874,3.888,3.8878,3.8739,3.8854,3.8853,3.8852,3.8851,3.8851,3.8831,3.8854,3.8856,3.8875,3.8878,3.8886,3.8905,3.8898,3.8915,3.893,3.8916,3.8941,3.8942,3.8955,3.8957,3.8976,3.8957,3.8971,3.8974,3.8978,3.8984,3.8877,3.8978,3.8977,3.8977,3.8977,3.8977,0,3.8935,3.8935,3.8953,3.8965,3.898,3.8956,3.8963,3.8977,3.9,3.9004,3.9018,3.9041,3.9058,3.9051,3.9066,3.9082,3.9072,3.9087,3.9086,3.9086,3.9,3.899,3.9096,3.9096,3.9096,3.9096,3.9096,3.9095,3.8991,3.9029,3.9021,3.9059,3.9058,3.9083,3.9089,3.9096,3.91,3.9128,3.9142,3.9137,3.9137,3.9152,3.9167,3.9164,3.9171,3.9191,3.9184,3.9104,3.9092,3.9081,3.9072,3.9192,3.9192,3.9268,3.9269,3.927]}]]